EW5391 Weather Reports


time (UTC)temp
F
wind
direction
speed
knots
gust
knots
rain 1hr
in
rain 24hr
in
rain mn
in
humidity
%
barometer
mb
20260507065516 59 315 13.0 14.8 0.00 0.25 0.14 88 1009.7
20260507064516 59 315 11.3 13.9 0.00 0.25 0.14 88 1009.5
20260507063516 59 338 11.3 13.9 0.02 0.25 0.14 88 1009.2
20260507062516 59 338 12.2 13.9 0.06 0.25 0.14 88 1009.4
20260507061536 59 338 13.0 15.6 0.09 0.25 0.14 88 1009.6
20260507060516 60 338 11.3 14.8 0.11 0.25 0.14 91 1009.8
20260507055516 60 338 12.2 14.8 0.12 0.25 0.14 90 1009.7
20260507054536 61 338 10.4 12.2 0.14 0.25 0.14 88 1009.6
20260507053516 62 338 7.0 9.6 0.12 0.23 0.12 87 1009.5
20260507052536 63 338 8.7 10.4 0.08 0.19 0.08 85 1009.8
20260507051516 63 338 9.6 12.2 0.05 0.16 0.05 84 1010.0
20260507050516 64 0 10.4 11.3 0.03 0.14 0.03 83 1009.7
20260507045516 65 315 10.4 12.2 0.02 0.13 0.02 85 1009.9
20260507044515 66 315 11.3 12.2 0.00 0.11 0.00 84 1009.8
20260507043515 66 315 8.7 9.6 0.00 0.11 0.00 84 1009.3
20260507042515 66 315 7.8 10.4 0.00 0.11 0.00 84 1009.2
20260507041515 66 315 5.2 7.0 0.00 0.11 0.00 83 1008.8
20260507040516 66 315 7.8 8.7 0.00 0.11 0.00 81 1008.7
20260507035517 67 293 10.4 12.2 0.00 0.11 0.11 80 1009.1
20260507034517 67 293 7.8 9.6 0.00 0.11 0.11 80 1009.1
20260507033516 67 293 9.6 11.3 0.00 0.11 0.11 84 1009.1
20260507032517 67 315 9.6 10.4 0.00 0.11 0.11 84 1008.8
20260507031517 67 315 9.6 10.4 0.00 0.11 0.11 87 1008.7
20260507030515 68 270 1.7 2.6 0.00 0.11 0.11 89 1008.6
20260507025517 67 270 1.7 2.6 0.00 0.11 0.11 90 1008.7
20260507024537 66 0.0 0.0 0.00 0.11 0.11 90 1008.1
20260507023557 66 0.0 0.0 0.00 0.11 0.11 90 1008.2
20260507022516 66 0.0 0.0 0.00 0.11 0.11 89 1008.1
20260507021517 67 0.0 0.0 0.00 0.11 0.11 89 1008.3
20260507020516 67 0.0 0.0 0.00 0.11 0.11 89 1008.2
20260507015516 67 0.0 0.0 0.00 0.11 0.11 88 1007.9
20260507014516 67 0.0 0.0 0.00 0.11 0.11 88 1008.6
20260507013517 67 0.0 0.0 0.00 0.11 0.11 88 1008.7
20260507012517 67 0.0 0.0 0.00 0.11 0.11 88 1008.7
20260507011537 68 0.0 0.0 0.00 0.11 0.11 87 1008.9
20260507010517 68 0.0 0.0 0.00 0.11 0.11 87 1008.6
20260507005516 68 0.0 0.0 0.00 0.11 0.11 86 1008.5
20260507004517 69 0.0 0.0 0.00 0.11 0.11 86 1008.3
20260507003516 69 0.0 0.0 0.00 0.11 0.11 85 1008.3
20260507002516 69 0.0 0.0 0.00 0.11 0.11 84 1008.2
20260507001516 70 0.0 0.0 0.00 0.11 0.11 83 1008.4
20260507000516 70 0.0 0.0 0.00 0.11 0.11 82 1008.2
20260506235516 70 0.0 0.0 0.00 0.11 0.11 81 1008.3
20260506234516 70 0.0 0.0 0.00 0.11 0.11 81 1007.9
20260506233557 71 248 0.9 1.7 0.00 0.11 0.11 81 1007.9
20260506232516 71 0.0 1.7 0.00 0.11 0.11 80 1007.5
20260506231537 71 0.0 0.9 0.00 0.11 0.11 80 1007.6
20260506230516 71 0.0 0.0 0.00 0.11 0.11 80 1007.8
20260506225516 71 248 1.7 3.5 0.00 0.11 0.11 80 1007.5
20260506224536 71 270 1.7 5.2 0.00 0.11 0.11 79 1007.6
20260506223516 72 270 0.9 2.6 0.00 0.11 0.11 79 1007.6
20260506222536 72 248 1.7 3.5 0.00 0.11 0.11 79 1007.6
20260506221516 72 225 1.7 3.5 0.00 0.11 0.11 79 1007.8
20260506220516 72 0.0 0.0 0.00 0.11 0.11 79 1007.6
20260506215516 72 225 1.7 3.5 0.00 0.11 0.11 79 1007.7
20260506214516 72 0.0 1.7 0.00 0.11 0.11 78 1007.6
20260506213516 72 270 1.7 4.3 0.00 0.11 0.11 79 1007.5
20260506212539 72 248 1.7 4.3 0.00 0.11 0.11 79 1007.4
20260506211516 72 225 1.7 5.2 0.00 0.11 0.11 79 1007.4
20260506210536 72 225 2.6 7.8 0.00 0.11 0.11 78 1007.2
20260506205516 72 248 0.9 4.3 0.00 0.11 0.11 79 1007.1
20260506204516 72 248 4.3 7.0 0.00 0.11 0.11 78 1007.1
20260506203516 72 203 3.5 7.0 0.00 0.11 0.11 79 1007.0
20260506202516 72 203 1.7 5.2 0.00 0.11 0.11 79 1007.1
20260506201516 72 180 3.5 6.1 0.00 0.11 0.11 79 1007.1
20260506200536 71 203 3.5 6.1 0.00 0.11 0.11 79 1007.1
20260506195516 71 0.0 0.0 0.00 0.11 0.11 79 1007.0
20260506194516 72 180 4.3 11.3 0.00 0.11 0.11 78 1007.2
20260506193516 72 0.0 0.9 0.00 0.11 0.11 79 1007.2
20260506192516 71 270 0.9 2.6 0.00 0.11 0.11 79 1007.3
20260506191519 71 248 1.7 3.5 0.00 0.11 0.11 79 1007.4
20260506190516 71 248 0.9 4.3 0.00 0.11 0.11 80 1007.5
20260506185516 71 203 1.7 3.5 0.00 0.11 0.11 80 1007.5
20260506184516 70 225 2.6 3.5 0.00 0.11 0.11 81 1007.8
20260506183516 70 203 5.2 8.7 0.00 0.11 0.11 81 1007.8
20260506182516 70 203 7.8 13.9 0.00 0.11 0.11 81 1008.0
20260506181516 69 315 1.7 2.6 0.00 0.11 0.11 82 1008.0
20260506180516 69 270 5.2 9.6 0.00 0.11 0.11 83 1008.2
20260506175519 68 203 1.7 7.8 0.00 0.11 0.11 84 1008.3
20260506174516 68 248 0.9 3.5 0.00 0.11 0.11 84 1008.3
20260506173515 68 203 3.5 6.1 0.00 0.11 0.11 86 1008.3
20260506172516 67 225 1.7 7.0 0.00 0.11 0.11 86 1008.5
20260506171515 67 180 3.5 15.6 0.00 0.11 0.11 88 1008.4
20260506170515 66 225 0.9 2.6 0.00 0.11 0.11 90 1008.4
20260506165515 65 248 3.5 9.6 0.00 0.11 0.11 91 1008.8
20260506164516 65 158 3.5 6.1 0.01 0.11 0.11 91 1008.7
20260506163516 65 158 3.5 11.3 0.01 0.11 0.11 93 1008.5
20260506162536 64 203 3.5 10.4 0.01 0.11 0.11 94 1008.4
20260506161515 63 203 1.7 5.2 0.01 0.11 0.11 93 1009.0
20260506160516 63 203 0.9 1.7 0.02 0.11 0.11 93 1009.0
20260506155516 63 158 1.7 4.3 0.05 0.11 0.11 93 1008.9
20260506154516 63 203 0.9 3.5 0.07 0.10 0.10 93 1008.8
20260506153516 63 203 2.6 4.3 0.08 0.10 0.10 93 1009.1
20260506152515 63 180 1.7 3.5 0.08 0.10 0.10 93 1009.7
20260506151616 63 180 0.9 1.7 0.09 0.10 0.10 92 1009.8
20260506150515 63 225 0.9 1.7 0.09 0.09 0.09 91 1009.9
20260506145515 63 225 1.7 4.3 0.06 0.06 0.06 91 1010.0
20260506144515 64 203 1.7 3.5 0.03 0.03 0.03 90 1009.8
20260506143515 64 203 1.7 4.3 0.02 0.02 0.02 89 1009.9
20260506142515 64 203 1.7 3.5 0.02 0.02 0.02 88 1010.0
20260506141515 64 270 1.7 3.5 0.01 0.01 0.01 87 1010.0
20260506140535 65 203 0.9 3.5 0.00 0.00 0.00 86 1010.0
20260506135515 65 180 0.9 1.7 0.00 0.00 0.00 84 1010.2
20260506134535 66 0.0 2.6 0.00 0.00 0.00 82 1010.3
20260506133515 66 203 1.7 5.2 0.00 0.00 0.00 81 1010.0
20260506132515 66 203 1.7 7.8 0.00 0.00 0.00 81 1009.9
20260506131515 66 203 3.5 7.0 0.00 0.00 0.00 80 1009.8
20260506130515 66 180 2.6 7.0 0.00 0.00 0.00 80 1009.7
20260506125535 66 203 2.6 7.8 0.00 0.00 0.00 81 1009.7
20260506124555 66 203 1.7 3.5 0.00 0.00 0.00 82 1009.8
20260506123535 65 203 2.6 5.2 0.00 0.00 0.00 82 1009.9
20260506122515 65 225 3.5 10.4 0.00 0.00 0.00 83 1010.1
20260506121515 65 180 4.3 7.8 0.00 0.00 0.00 83 1010.0
20260506120535 65 203 5.2 14.8 0.00 0.00 0.00 83 1009.9
20260506115556 65 225 3.5 7.8 0.00 0.00 0.00 83 1009.6
20260506114515 66 158 3.5 7.0 0.00 0.00 0.00 83 1009.6
20260506113515 65 225 0.9 1.7 0.00 0.00 0.00 84 1009.6
20260506112515 65 135 3.5 7.0 0.00 0.00 0.00 85 1009.6
20260506111515 65 158 3.5 7.8 0.00 0.00 0.00 85 1009.5
20260506110535 65 180 3.5 7.8 0.00 0.00 0.00 85 1009.4
20260506105515 65 180 2.6 7.8 0.00 0.00 0.00 84 1009.4
20260506104515 65 158 0.9 3.5 0.00 0.00 0.00 85 1009.3
20260506103520 64 225 1.7 4.3 0.00 0.00 0.00 86 1009.3
20260506102517 64 248 0.9 2.6 0.00 0.00 0.00 86 1009.3
20260506101517 64 180 3.5 5.2 0.00 0.00 0.00 86 1009.2
20260506100517 64 180 1.7 4.3 0.00 0.00 0.00 86 1009.2
20260506095517 64 180 0.9 4.3 0.00 0.00 0.00 86 1009.3
20260506094537 64 158 4.3 7.8 0.00 0.00 0.00 86 1009.3
20260506093517 65 180 1.7 6.1 0.00 0.00 0.00 85 1009.3
20260506092517 65 180 3.5 12.2 0.00 0.00 0.00 85 1009.3
20260506091517 65 203 1.7 4.3 0.00 0.00 0.00 85 1009.3
20260506090517 65 180 3.5 9.6 0.00 0.00 0.00 85 1009.4
20260506085517 65 180 4.3 7.8 0.00 0.00 0.00 85 1009.3
20260506084517 65 158 4.3 8.7 0.00 0.00 0.00 85 1009.3
20260506083537 65 225 4.3 7.8 0.00 0.00 0.00 85 1009.6
20260506082515 65 203 1.7 3.5 0.00 0.00 0.00 84 1009.4
20260506081517 65 158 0.9 1.7 0.00 0.00 0.00 85 1009.4
20260506080516 65 158 1.7 4.3 0.00 0.00 0.00 85 1009.3
20260506073517 66 158 3.5 5.2 0.00 0.00 0.00 84 1009.6
20260506072557 66 203 1.7 7.8 0.00 0.00 0.00 84 1009.6
20260506071516 66 180 2.6 4.3 0.00 0.00 0.00 83 1009.7
20260506070516 66 158 0.9 4.3 0.00 0.00 0.00 83 1009.7